Weather Roundup
Issued by NWS Springfield, MO

Home | Current Version | Previous Version | Text Only | Print | Product List | Glossary On
Versions: 1 2 3 4 5 6 7 8 9 10 11 12 13 14 15 16 17 18 19 20 21 22 23 24 25 26 27 28 29 30 31 32 33 34 35 36 37 38 39 40 41 42 43 44 45 46 47 48 49 50
000
NZUS99 KSGF 242059
HRRSGF

HOURLY WEATHER
NATIONAL WEATHER SERVICE SPRINGFIELD MO
400 PM CDT SUN MAY 24 2015

......SGF CWA......

CITY           SKY/WX    TMP DP  RH WIND       PRES   REMARKS
SPRINGFIELD    CLOUDY    69  64  84 SW9       29.90F
JOPLIN         CLOUDY    67  64  90 SW6       29.91
WEST PLAINS    CLOUDY    76  66  71 S13G20    29.93F
ROLLA          PTSUNNY   80  67  64 S15       29.88F
OSAGE BEACH    CLOUDY    72  66  83 SW10      29.89F
BRANSON        CLOUDY    66  64  94 W7        29.93F

......SURROUNDING SGF CWA......

CITY           SKY/WX    TMP DP  RH WIND       PRES   REMARKS
CHANUTE        LGT RAIN  66  63  90 S8        29.89S
PARSONS        LGT RAIN  66  65  96 S5        29.91
COFFEYVILLE    LGT RAIN  66  64  93 S3        29.89  FOG
EMPORIA        LGT RAIN  66  62  87 S12       29.88R
SILOAM SPRINGS CLOUDY    64  57  77 CALM      29.92F
HARRISON AR    CLOUDY    73  67  81 S7        29.91F
NEAR YELLVILLE CLOUDY    73  64  73 SE3       29.87F

......KANSAS AND MISSOURI......

CITY           SKY/WX    TMP DP  RH WIND       PRES   REMARKS
KANSAS CTY INT CLOUDY    69  64  84 S12       29.86S
DOWNTOWN KC    CLOUDY    72  63  73 S7        29.85S
COLUMBIA       TSTM      69  67  93 S14       29.91R FOG
SEDALIA        LGT RAIN  70  64  81 W13G21    29.88S
ST JOSEPH      CLOUDY    70  63  78 S8        29.84S
ST LOUIS       PTSUNNY   85  64  49 S20G29    29.92F
SPIRIT OF STL  PTSUNNY   85  64  49 S9G21     29.89F
KIRKSVILLE     HVY RAIN  68  67  96 W5        29.84F FOG
WICHITA        CLOUDY    66  61  84 S13       29.86S
TOPEKA         CLOUDY    70  62  76 S12       29.86S
OLATHE         CLOUDY    69  63  81 S7        29.86F

......TENNESSEE......

CITY           SKY/WX    TMP DP  RH WIND       PRES   REMARKS
MEMPHIS        PTSUNNY   86  67  52 SE17      29.99F
NASHVILLE      PTSUNNY   85  63  47 SE16G23   30.13F

......ARKANSAS.......

CITY           SKY/WX    TMP DP  RH WIND       PRES   REMARKS
FAYETTEVILLE   RAIN      63  62  97 CALM      29.91F FOG
FT SMITH       HVY RAIN  65  63  93 NE9       29.84F FOG
LITTLE ROCK    CLOUDY    83  68  60 SE13      29.89F

......OKLAHOMA.......

CITY           SKY/WX    TMP DP  RH WIND       PRES   REMARKS
TULSA          CLOUDY    67  65  93 SE6       29.86S
PONCA CITY     LGT RAIN  65  64  97 S10       29.86F
MCALESTER      LGT RAIN  66  64  93 E5        29.86F
OKLAHOMA CITY  LGT RAIN  68  64  87 SE7       29.85F

......IOWA............

CITY           SKY/WX    TMP DP  RH WIND       PRES   REMARKS
DES MOINES     CLOUDY    71  64  78 S12       29.81F
QUAD CITIES    RAIN      74  67  78 S8        29.88F

......ILLINOIS........

CITY           SKY/WX    TMP DP  RH WIND       PRES   REMARKS
QUINCY         PTSUNNY   81  65  58 S15G24    29.86F
CHICAGO        LGT RAIN  69  55  60 NE7       30.00F



USA.gov is the U.S. government's official web portal to all federal, state and local government web resources and services.